Cook, MN

12:13 PM CST on December 16, 2017 (GMT -0600)
Cook Municipal

Weather History for KCQM - February, 2013

Change the Weather History Date:

Sunday, February 3, 2013

  Actual Average Record
Temperature  
Mean Temperature -10 °F -  
Max Temperature 3 °F 21 °F 41 °F (2005)
Min Temperature -23 °F 2 °F -23 °F (2007)
Degree Days  
Heating Degree Days 75    
Moisture  
Dew Point -11 °F    
Average Humidity 75    
Maximum Humidity 92    
Minimum Humidity 56    
Precipitation  
Precipitation 0.00 in - - ()
Sea Level Pressure  
Sea Level Pressure 29.93 in    
Wind  
Wind Speed 8 mph (WNW)    
Max Wind Speed 15 mph    
Max Gust Speed 20 mph    
Visibility 10 miles    
Events Snow    
Averages and records for this station are not official NWS values.
T = Trace of Precipitation, MM = Missing Value Source: NWS Daily Summary

Daily Weather History Graph

Daily Weather History Graph

Search for Another Location

Airport or City:

Trip Planner

Search our weather history database for the weather conditions in past years. The results will help you decide how hot, cold, wet, or windy it might be!

Date:

Astronomy

Feb. 03, 2013 Rise Set
Actual Time 7:34 AM CST 5:15 PM CST
Civil Twilight 7:01 AM CST 5:48 PM CST
Nautical Twilight 6:24 AM CST 6:24 PM CST
Astronomical Twilight 5:48 AM CST 7:01 PM CST
Moon 1:04 AM CST (2/3) 10:49 AM CST (2/3)
Length of Visible Light 10h 46m
Length of Day
9h 40m
Waning Gibbous, 48% of the Moon is Illuminated
Feb 3
Waning Gibbous
Feb 10
New
Feb 17
First Quarter
Feb 25
Full
Mar 4
Last Quarter

Hourly Weather History & Observations

Time (CST) Temp. Windchill Dew Point Humidity Pressure Visibility Wind Dir Wind Speed Gust Speed Precip Events Conditions
12:17 AM 3.2 °F -12.2 °F -2.2 °F 78% 29.87 in 10.0 mi WNW 10.4 mph - N/A Snow Light Snow
12:36 AM 3.2 °F -12.2 °F -2.2 °F 78% 29.87 in 10.0 mi West 10.4 mph - N/A   Overcast
12:57 AM 3.2 °F -12.2 °F -2.2 °F 78% 29.86 in 7.0 mi West 10.4 mph - N/A Snow Light Snow
1:17 AM 1.4 °F -12.5 °F -2.2 °F 85% 29.85 in 10.0 mi West 8.1 mph - N/A Snow Light Snow
1:36 AM 1.4 °F -15.3 °F -2.2 °F 85% 29.85 in 10.0 mi West 11.5 mph - N/A   Overcast
1:57 AM 1.4 °F -14.5 °F -2.2 °F 85% 29.87 in 10.0 mi West 10.4 mph - N/A   Overcast
2:16 AM 1.4 °F -15.3 °F -2.2 °F 85% 29.87 in 7.0 mi West 11.5 mph 19.6 mph N/A   Overcast
2:37 AM 1.4 °F -16.1 °F -2.2 °F 85% 29.87 in 5.0 mi West 12.7 mph - N/A Snow Light Snow
2:57 AM 1.4 °F -17.6 °F -2.2 °F 85% 29.88 in 7.0 mi WNW 15.0 mph - N/A   Overcast
3:16 AM 1.4 °F -15.3 °F -4.0 °F 78% 29.87 in 7.0 mi WNW 11.5 mph 19.6 mph N/A   Overcast
3:57 AM -0.4 °F -16.7 °F -5.8 °F 78% 29.89 in 10.0 mi WNW 10.4 mph - N/A   Overcast
4:16 AM -0.4 °F -14.7 °F -5.8 °F 78% 29.89 in 10.0 mi WNW 8.1 mph - N/A   Overcast
4:37 AM -0.4 °F -13.4 °F -5.8 °F 78% 29.90 in 10.0 mi WNW 6.9 mph - N/A   Overcast
4:57 AM -0.4 °F -16.7 °F -5.8 °F 78% 29.90 in 7.0 mi WNW 10.4 mph 17.3 mph N/A   Overcast
5:16 AM -0.4 °F -15.7 °F -7.6 °F 72% 29.90 in 10.0 mi WNW 9.2 mph 17.3 mph N/A   Scattered Clouds
5:37 AM -2.2 °F -18.0 °F -7.6 °F 78% 29.91 in 10.0 mi WNW 9.2 mph - N/A   Clear
5:57 AM -2.2 °F -14.2 °F -7.6 °F 78% 29.92 in 10.0 mi WNW 5.8 mph - N/A   Clear
6:16 AM -4.0 °F -14.6 °F -9.4 °F 78% 29.92 in 10.0 mi WNW 4.6 mph - N/A   Scattered Clouds
6:37 AM -4.0 °F -14.6 °F -9.4 °F 78% 29.92 in 10.0 mi WNW 4.6 mph - N/A   Mostly Cloudy
6:57 AM -5.8 °F -19.9 °F -9.4 °F 84% 29.92 in 10.0 mi WNW 6.9 mph - N/A   Scattered Clouds
7:16 AM -5.8 °F -18.4 °F -9.4 °F 84% 29.92 in 10.0 mi West 5.8 mph - N/A   Scattered Clouds
7:37 AM -7.6 °F -20.6 °F -9.4 °F 92% 29.93 in 10.0 mi West 5.8 mph - N/A   Scattered Clouds
7:57 AM -9.4 °F -24.3 °F -13.0 °F 84% 29.95 in 10.0 mi West 6.9 mph - N/A   Clear
8:16 AM -7.6 °F -23.4 °F -11.2 °F 84% 29.95 in 10.0 mi West 8.1 mph - N/A   Clear
8:37 AM -7.6 °F -23.4 °F -11.2 °F 84% 29.95 in 10.0 mi West 8.1 mph - N/A   Clear
8:57 AM -5.8 °F -21.2 °F -9.4 °F 84% 29.96 in 10.0 mi West 8.1 mph - N/A   Clear
9:16 AM -4.0 °F -21.2 °F -9.4 °F 78% 29.96 in 10.0 mi WNW 10.4 mph - N/A   Scattered Clouds
9:37 AM -4.0 °F -22.1 °F -9.4 °F 78% 29.97 in 10.0 mi WNW 11.5 mph 17.3 mph N/A   Scattered Clouds
9:57 AM -2.2 °F -20.7 °F -9.4 °F 71% 29.97 in 10.0 mi NW 12.7 mph 17.3 mph N/A   Scattered Clouds
10:16 AM -2.2 °F -19.9 °F -9.4 °F 71% 29.97 in 7.0 mi WNW 11.5 mph - N/A   Scattered Clouds
10:37 AM -2.2 °F -18.0 °F -9.4 °F 71% 29.97 in 10.0 mi WNW 9.2 mph - N/A   Scattered Clouds
10:56 AM -2.2 °F -19.9 °F -9.4 °F 71% 29.97 in 10.0 mi WNW 11.5 mph - N/A   Mostly Cloudy
11:16 AM -0.4 °F -16.7 °F -9.4 °F 66% 29.96 in 10.0 mi WNW 10.4 mph - N/A   Mostly Cloudy
11:37 AM -0.4 °F -14.7 °F -9.4 °F 66% 29.96 in 10.0 mi WNW 8.1 mph - N/A   Mostly Cloudy
11:57 AM -0.4 °F -14.7 °F -9.4 °F 66% 29.95 in 10.0 mi West 8.1 mph - N/A   Mostly Cloudy
12:16 PM -0.4 °F -15.7 °F -9.4 °F 66% 29.95 in 10.0 mi WNW 9.2 mph - N/A   Scattered Clouds
12:37 PM -0.4 °F -16.7 °F -9.4 °F 66% 29.94 in 10.0 mi West 10.4 mph - N/A   Clear
12:56 PM 1.4 °F -14.5 °F -9.4 °F 61% 29.94 in 10.0 mi West 10.4 mph - N/A   Clear
1:17 PM 1.4 °F -11.3 °F -9.4 °F 61% 29.94 in 10.0 mi WNW 6.9 mph - N/A   Clear
1:36 PM 3.2 °F -12.2 °F -9.4 °F 56% 29.94 in 10.0 mi West 10.4 mph - N/A   Clear
1:57 PM 3.2 °F -12.2 °F -7.6 °F 61% 29.93 in 10.0 mi West 10.4 mph - N/A   Clear
2:16 PM 3.2 °F -9.1 °F -7.6 °F 61% 29.93 in 10.0 mi West 6.9 mph - N/A   Clear
2:36 PM 3.2 °F -9.1 °F -7.6 °F 61% 29.93 in 10.0 mi West 6.9 mph - N/A   Clear
2:56 PM 3.2 °F -9.1 °F -7.6 °F 61% 29.93 in 10.0 mi West 6.9 mph - N/A   Clear
3:16 PM 3.2 °F -9.1 °F -7.6 °F 61% 29.93 in 10.0 mi WNW 6.9 mph - N/A   Clear
3:37 PM 3.2 °F -9.1 °F -7.6 °F 61% 29.93 in 10.0 mi West 6.9 mph - N/A   Clear
3:56 PM 3.2 °F -10.3 °F -7.6 °F 61% 29.93 in 10.0 mi West 8.1 mph - N/A   Clear
4:16 PM 3.2 °F -7.8 °F -7.6 °F 61% 29.93 in 10.0 mi WNW 5.8 mph - N/A   Clear
4:37 PM 3.2 °F -9.1 °F -7.6 °F 61% 29.93 in 10.0 mi West 6.9 mph - N/A   Clear
4:56 PM 1.4 °F -11.3 °F -7.6 °F 66% 29.93 in 10.0 mi West 6.9 mph - N/A   Clear
5:16 PM 1.4 °F -8.3 °F -9.4 °F 61% 29.93 in 10.0 mi West 4.6 mph - N/A   Clear
5:37 PM -2.2 °F - -9.4 °F 71% 29.93 in 10.0 mi Calm Calm - N/A   Clear
5:56 PM -2.2 °F - -9.4 °F 71% 29.93 in 10.0 mi Calm Calm - N/A   Clear
6:17 PM -2.2 °F - -9.4 °F 71% 29.93 in 10.0 mi Calm Calm - N/A   Clear
6:37 PM -7.6 °F - -13.0 °F 77% 29.93 in 10.0 mi Calm Calm - N/A   Clear
6:56 PM -7.6 °F - -13.0 °F 77% 29.93 in 10.0 mi Calm Calm - N/A   Clear
7:17 PM -9.4 °F - -13.0 °F 84% 29.94 in 10.0 mi Calm Calm - N/A   Clear
7:37 PM -9.4 °F - -14.8 °F 77% 29.94 in 10.0 mi Calm Calm - N/A   Clear
7:56 PM -13.0 °F - -16.6 °F 84% 29.94 in 10.0 mi Calm Calm - N/A   Clear
8:17 PM -14.8 °F - -18.4 °F 84% 29.94 in 10.0 mi Calm Calm - N/A   Clear
8:37 PM -14.8 °F - -18.4 °F 84% 29.94 in 10.0 mi Calm Calm - N/A   Clear
8:56 PM -16.6 °F - -20.2 °F 84% 29.95 in 10.0 mi Calm Calm - N/A   Clear
9:17 PM -18.4 °F - -22.0 °F 84% 29.95 in 10.0 mi Calm Calm - N/A   Clear
9:36 PM -18.4 °F - -23.8 °F 76% 29.95 in - Calm Calm - N/A   Clear
9:57 PM -18.4 °F - -23.8 °F 76% 29.96 in - Calm Calm - N/A   Unknown
10:16 PM -20.2 °F - -25.6 °F 76% 29.96 in - Calm Calm - N/A   Clear
10:36 PM -20.2 °F - -25.6 °F 76% 29.96 in - Calm Calm - N/A   Clear
10:56 PM -23.8 °F - -27.4 °F 83% 29.96 in - Calm Calm - N/A   Unknown
11:16 PM -23.8 °F - -27.4 °F 83% 29.96 in - Calm Calm - N/A   Clear
11:36 PM -23.8 °F - -29.2 °F 76% 29.97 in - Calm Calm - N/A   Clear
11:57 PM -23.8 °F - -29.2 °F 76% 29.97 in - Calm Calm - N/A   Clear